Flag for India Weather past 2 weeks in Ahmedabad, Gujarat, India

Now
72 °F

Clear.


Feels Like: 76 °F
Forecast: 75 / 98 °F
Wind: 6 mph from North

Location: Ahmadabad Airport

Current Time: Oct 22, 2014 at 6:37:14 AM

Latest Report: Oct 22, 2014 at 6:10 AM


Visibility: 2 mi

Pressure: 29.95 "Hg

Humidity: 61%

Dew point: 57 °F

Location of AhmedabadLocation

Historic Weather in Ahmedabad — Graph

°F

Ahmedabad temperature yesterday

Maximum temperature yesterday: 100 °F (at 1:40 PM)
Minimum temperature yesterday: 70 °F (at 6:10 AM)
Average temperature yesterday: 84 °F

Past Weeks' High & Low Weather Summary

 TemperatureHumidityPressure
High104 °F (Oct 11, 2:10 PM)89% (Oct 11, 1:40 AM)29.95 "Hg (Oct 11, 1:40 AM)
Low66 °F (Oct 19, 5:40 AM)22% (Oct 14, 2:40 PM)29.65 "Hg (Oct 13, 3:10 PM)
Average86 °F56%29.81 "Hg
* Reported Oct 7 4:40 AM — Oct 22 5:10 AM, Ahmedabad, Weather by CustomWeather, © 2014

Note: Actual official high and low records may vary slightly from our data, if they occured in-between our weather recording intervals... More about our weather records

Advertising

Ahmedabad weather history for previous 24 hours

 ConditionsComfort  
Time TempWeatherWind HumidityBarometerVisibility
5:10 AM
Oct 22
72 °FClear.6 mph61%29.95 "Hg2 mi
4:40 AM72 °FClear.6 mph65%29.92 "Hg2 mi
4:10 AM73 °FClear.6 mph61%29.92 "Hg2 mi
3:40 AM73 °FClear.6 mph65%29.92 "Hg2 mi
3:10 AM73 °FClear.6 mph61%29.92 "Hg2 mi
2:40 AM75 °FClear.5 mph57%29.92 "Hg2 mi
2:10 AM75 °FClear.6 mph57%29.92 "Hg2 mi
1:40 AM73 °FHaze.3 mph74%29.92 "Hg2 mi
1:10 AM75 °FHaze.3 mph69%29.95 "Hg2 mi
12:40 AM75 °FHaze.No wind78%29.95 "Hg2 mi
12:10 AM77 °FClear.No wind65%29.95 "Hg2 mi
11:40 PM
Oct 21
77 °FClear.No wind61%29.95 "Hg2 mi
11:10 PM79 °FClear.No wind58%29.95 "Hg2 mi
10:40 PM79 °FClear.No wind61%29.95 "Hg2 mi
10:10 PM81 °FClear.No wind54%29.95 "Hg2 mi
9:40 PM81 °FClear.No wind54%29.95 "Hg2 mi
9:10 PM81 °FClear.No wind66%29.92 "Hg2 mi
8:40 PM82 °FClear.No wind62%29.92 "Hg2 mi
7:40 PM86 °FClear.5 mph49%29.92 "Hg2 mi
7:10 PM86 °FClear.No wind49%29.89 "Hg2 mi
6:40 PM88 °FClear.No wind49%29.86 "Hg2 mi
5:10 PM99 °FClear.6 mph29%29.83 "Hg4 mi
4:40 PM99 °FClear.6 mph29%29.83 "Hg4 mi
4:10 PM100 °FClear.3 mph29%29.83 "Hg4 mi
3:40 PM100 °FClear.5 mph27%29.83 "Hg4 mi
3:10 PM100 °FClear.5 mph27%29.83 "Hg4 mi
2:40 PM100 °FClear.7 mph27%29.86 "Hg4 mi
2:10 PM100 °FClear.5 mph25%29.86 "Hg4 mi
1:40 PM100 °FClear.6 mph27%29.89 "Hg4 mi
1:10 PM99 °FClear.7 mph27%29.89 "Hg4 mi
12:40 PM97 °FClear.6 mph28%29.92 "Hg4 mi
12:10 PM97 °FClear.7 mph28%29.92 "Hg3 mi
11:40 AM95 °FClear.7 mph30%29.95 "Hg3 mi
10:40 AM90 °FClear.8 mph33%N/A2 mi
10:10 AM90 °FClear.9 mph31%N/A2 mi
9:40 AM86 °FClear.9 mph35%N/A2 mi
9:10 AM84 °FClear.7 mph40%N/A2 mi
8:40 AM81 °FClear.9 mph45%N/A2 mi
8:10 AM77 °FClear.8 mph54%N/A2 mi
7:40 AM75 °FHaze.6 mph57%N/A2 mi
7:10 AM72 °FHaze.5 mph65%N/A2 mi
6:10 AM70 °FHaze.No wind73%N/A2 mi
Weather by CustomWeather, © 2014

See weather overviewHow to use our weather pages